Time,TemperatureF,DewpointF,PressureIn,WindDirection,WindDirectionDegrees,WindSpeedMPH,WindSpeedGustMPH,Humidity,HourlyPrecipIn,Conditions,Clouds,dailyrainin,SoftwareType,DateUTC
2013-06-21 00:01:00,63.5,55.4,30.25,SE,141,0.0,0.0,75,0.00,,,0.00,WUHU216PEETBRO,2013-06-21 04:01:00,
2013-06-21 00:06:00,63.4,55.4,30.25,SE,141,0.0,0.0,75,0.00,,,0.00,WUHU216PEETBRO,2013-06-21 04:06:00,
2013-06-21 00:11:00,63.3,55.4,30.25,SE,141,0.0,0.0,75,0.00,,,0.00,WUHU216PEETBRO,2013-06-21 04:11:00,
2013-06-21 00:16:00,63.1,55.5,30.25,SE,141,0.0,0.0,76,0.00,,,0.00,WUHU216PEETBRO,2013-06-21 04:16:00,
2013-06-21 00:21:00,62.9,55.4,30.25,SE,141,0.0,0.0,76,0.00,,,0.00,WUHU216PEETBRO,2013-06-21 04:21:00,
2013-06-21 00:26:00,62.8,55.5,30.25,SE,141,0.0,0.0,77,0.00,,,0.00,WUHU216PEETBRO,2013-06-21 04:26:00,
2013-06-21 00:31:00,62.7,55.6,30.26,SE,141,0.0,0.0,77,0.00,,,0.00,WUHU216PEETBRO,2013-06-21 04:31:00,
2013-06-21 00:36:00,62.5,55.2,30.26,SE,141,0.0,0.0,77,0.00,,,0.00,WUHU216PEETBRO,2013-06-21 04:36:00,
2013-06-21 00:41:00,62.3,55.0,30.26,SE,141,0.0,0.0,77,0.00,,,0.00,WUHU216PEETBRO,2013-06-21 04:41:00,
2013-06-21 00:46:00,62.2,54.9,30.26,SE,141,0.0,0.0,77,0.00,,,0.00,WUHU216PEETBRO,2013-06-21 04:46:00,
2013-06-21 00:51:00,62.1,54.7,30.26,SE,141,0.0,0.0,76,0.00,,,0.00,WUHU216PEETBRO,2013-06-21 04:51:00,
2013-06-21 00:56:00,62.3,54.4,30.26,SE,141,0.0,0.0,75,0.00,,,0.00,WUHU216PEETBRO,2013-06-21 04:56:00,
2013-06-21 01:01:00,62.5,54.3,30.26,SE,141,0.0,0.0,74,0.00,,,0.00,WUHU216PEETBRO,2013-06-21 05:01:00,
2013-06-21 01:06:00,62.6,54.1,30.26,SE,141,0.0,0.0,74,0.00,,,0.00,WUHU216PEETBRO,2013-06-21 05:06:00,
2013-06-21 01:11:00,62.7,54.3,30.26,SE,141,0.0,0.0,74,0.00,,,0.00,WUHU216PEETBRO,2013-06-21 05:11:00,
2013-06-21 01:16:00,62.9,53.9,30.25,SE,141,0.0,0.0,72,0.00,,,0.00,WUHU216PEETBRO,2013-06-21 05:16:00,
2013-06-21 01:21:00,63.0,53.8,30.25,SE,141,0.0,0.0,72,0.00,,,0.00,WUHU216PEETBRO,2013-06-21 05:21:00,
2013-06-21 01:26:00,63.2,53.7,30.26,SE,141,0.0,0.0,71,0.00,,,0.00,WUHU216PEETBRO,2013-06-21 05:26:00,
2013-06-21 01:31:00,63.2,53.9,30.25,SE,141,0.0,0.0,71,0.00,,,0.00,WUHU216PEETBRO,2013-06-21 05:31:00,
2013-06-21 01:36:00,63.1,53.5,30.25,SE,141,0.0,0.0,71,0.00,,,0.00,WUHU216PEETBRO,2013-06-21 05:36:00,
2013-06-21 01:41:00,62.9,53.7,30.25,SE,141,0.0,0.0,72,0.00,,,0.00,WUHU216PEETBRO,2013-06-21 05:41:00,
2013-06-21 01:46:00,62.6,53.8,30.25,SE,141,0.0,0.0,73,0.00,,,0.00,WUHU216PEETBRO,2013-06-21 05:46:00,
2013-06-21 01:51:00,62.3,53.7,30.25,SE,141,0.0,0.0,73,0.00,,,0.00,WUHU216PEETBRO,2013-06-21 05:51:00,
2013-06-21 01:56:00,62.0,53.7,30.25,SE,141,0.0,0.0,74,0.00,,,0.00,WUHU216PEETBRO,2013-06-21 05:56:00,
2013-06-21 02:01:00,61.8,53.7,30.25,SE,141,0.0,0.0,75,0.00,,,0.00,WUHU216PEETBRO,2013-06-21 06:01:00,
2013-06-21 02:06:00,61.6,53.8,30.25,SE,141,0.0,0.0,75,0.00,,,0.00,WUHU216PEETBRO,2013-06-21 06:06:00,
2013-06-21 02:11:00,61.5,53.9,30.24,SE,141,0.0,0.0,76,0.00,,,0.00,WUHU216PEETBRO,2013-06-21 06:11:00,
2013-06-21 02:16:00,61.4,53.8,30.24,SE,141,0.0,0.0,76,0.00,,,0.00,WUHU216PEETBRO,2013-06-21 06:16:00,
2013-06-21 02:21:00,61.7,53.9,30.24,SE,141,0.0,0.0,75,0.00,,,0.00,WUHU216PEETBRO,2013-06-21 06:21:00,
2013-06-21 02:26:00,61.9,53.8,30.24,SE,141,0.0,0.0,75,0.00,,,0.00,WUHU216PEETBRO,2013-06-21 06:26:00,
2013-06-21 02:31:00,62.1,53.9,30.24,SE,141,0.0,0.0,74,0.00,,,0.00,WUHU216PEETBRO,2013-06-21 06:31:00,
2013-06-21 02:36:00,62.2,54.1,30.24,SE,141,0.0,0.0,74,0.00,,,0.00,WUHU216PEETBRO,2013-06-21 06:36:00,
2013-06-21 02:41:00,62.0,54.0,30.24,SE,141,0.0,0.0,75,0.00,,,0.00,WUHU216PEETBRO,2013-06-21 06:41:00,
2013-06-21 02:46:00,61.8,54.1,30.24,SE,141,0.0,0.0,76,0.00,,,0.00,WUHU216PEETBRO,2013-06-21 06:46:00,
2013-06-21 02:51:00,61.6,54.1,30.24,SE,141,0.0,0.0,76,0.00,,,0.00,WUHU216PEETBRO,2013-06-21 06:51:00,
2013-06-21 02:56:00,61.6,54.3,30.24,SE,141,0.0,0.0,77,0.00,,,0.00,WUHU216PEETBRO,2013-06-21 06:56:00,
2013-06-21 03:01:00,61.7,54.3,30.24,SE,141,0.0,0.0,76,0.00,,,0.00,WUHU216PEETBRO,2013-06-21 07:01:00,
2013-06-21 03:06:00,61.8,54.4,30.24,SE,141,0.0,0.0,76,0.00,,,0.00,WUHU216PEETBRO,2013-06-21 07:06:00,
2013-06-21 03:11:00,61.9,54.3,30.24,SE,141,0.0,0.0,76,0.00,,,0.00,WUHU216PEETBRO,2013-06-21 07:11:00,
2013-06-21 03:16:00,62.0,54.6,30.24,SE,141,0.0,0.0,76,0.00,,,0.00,WUHU216PEETBRO,2013-06-21 07:16:00,
2013-06-21 03:21:00,61.9,56.1,30.23,SE,141,0.0,0.0,81,0.00,,,0.00,WUHU216PEETBRO,2013-06-21 07:21:00,
2013-06-21 03:26:00,61.6,55.4,30.23,SE,141,0.0,0.0,80,0.00,,,0.00,WUHU216PEETBRO,2013-06-21 07:26:00,
2013-06-21 03:31:00,61.4,54.9,30.23,SE,141,0.0,0.0,79,0.00,,,0.00,WUHU216PEETBRO,2013-06-21 07:31:00,
2013-06-21 03:36:00,61.0,54.9,30.23,SE,141,0.0,0.0,80,0.00,,,0.00,WUHU216PEETBRO,2013-06-21 07:36:00,
2013-06-21 03:41:00,60.8,55.0,30.23,SE,141,0.0,0.0,81,0.00,,,0.00,WUHU216PEETBRO,2013-06-21 07:41:00,
2013-06-21 03:46:00,60.5,55.1,30.23,SE,141,0.0,0.0,82,0.00,,,0.00,WUHU216PEETBRO,2013-06-21 07:46:00,
2013-06-21 03:51:00,60.2,55.1,30.23,SE,141,0.0,0.0,83,0.00,,,0.00,WUHU216PEETBRO,2013-06-21 07:51:00,
2013-06-21 03:56:00,60.0,55.2,30.23,SE,141,0.0,0.0,84,0.00,,,0.00,WUHU216PEETBRO,2013-06-21 07:56:00,
2013-06-21 04:01:00,59.8,55.1,30.23,SE,141,0.0,0.0,85,0.00,,,0.00,WUHU216PEETBRO,2013-06-21 08:01:00,
2013-06-21 04:06:00,60.2,55.2,30.23,SE,141,0.0,0.0,84,0.00,,,0.00,WUHU216PEETBRO,2013-06-21 08:06:00,
2013-06-21 04:11:00,60.5,55.4,30.23,SE,141,0.0,0.0,83,0.00,,,0.00,WUHU216PEETBRO,2013-06-21 08:11:00,
2013-06-21 04:16:00,60.5,55.5,30.24,SE,141,0.0,0.0,83,0.00,,,0.00,WUHU216PEETBRO,2013-06-21 08:16:00,
2013-06-21 04:21:00,60.2,55.7,30.24,SE,141,0.0,0.0,85,0.00,,,0.00,WUHU216PEETBRO,2013-06-21 08:21:00,
2013-06-21 04:26:00,59.9,55.6,30.24,SE,141,0.0,0.0,86,0.00,,,0.00,WUHU216PEETBRO,2013-06-21 08:26:00,
2013-06-21 04:31:00,59.6,55.7,30.24,SE,141,0.0,0.0,87,0.00,,,0.00,WUHU216PEETBRO,2013-06-21 08:31:00,
2013-06-21 04:36:00,59.4,55.9,30.24,SE,141,0.0,0.0,88,0.00,,,0.00,WUHU216PEETBRO,2013-06-21 08:36:00,
2013-06-21 04:41:00,59.3,56.1,30.23,SE,141,0.0,0.0,89,0.00,,,0.00,WUHU216PEETBRO,2013-06-21 08:41:00,
2013-06-21 04:46:00,59.2,56.2,30.23,SE,141,0.0,0.0,90,0.00,,,0.00,WUHU216PEETBRO,2013-06-21 08:46:00,
2013-06-21 04:51:00,59.3,56.5,30.23,SE,141,0.0,0.0,91,0.00,,,0.00,WUHU216PEETBRO,2013-06-21 08:51:00,
2013-06-21 04:56:00,59.1,56.4,30.23,SE,141,0.0,0.0,91,0.00,,,0.00,WUHU216PEETBRO,2013-06-21 08:56:00,
2013-06-21 05:01:00,59.0,56.5,30.22,SE,141,0.0,0.0,92,0.00,,,0.00,WUHU216PEETBRO,2013-06-21 09:01:00,
2013-06-21 05:06:00,58.8,56.5,30.22,SE,141,0.0,0.0,92,0.00,,,0.00,WUHU216PEETBRO,2013-06-21 09:06:00,
2013-06-21 05:11:00,58.9,56.5,30.23,SE,141,0.0,0.0,92,0.00,,,0.00,WUHU216PEETBRO,2013-06-21 09:11:00,
2013-06-21 05:16:00,59.1,56.6,30.23,SE,141,0.0,0.0,92,0.00,,,0.00,WUHU216PEETBRO,2013-06-21 09:16:00,
2013-06-21 05:21:00,59.2,56.7,30.23,SE,141,0.0,0.0,92,0.00,,,0.00,WUHU216PEETBRO,2013-06-21 09:21:00,
2013-06-21 05:26:00,59.2,56.7,30.23,SE,141,0.0,0.0,92,0.00,,,0.00,WUHU216PEETBRO,2013-06-21 09:26:00,
2013-06-21 05:31:00,59.2,56.8,30.23,SE,141,0.0,0.0,92,0.00,,,0.00,WUHU216PEETBRO,2013-06-21 09:31:00,
2013-06-21 05:36:00,59.2,56.8,30.23,SE,141,0.0,0.0,92,0.00,,,0.00,WUHU216PEETBRO,2013-06-21 09:36:00,
2013-06-21 05:41:00,59.1,56.9,30.23,SE,141,0.0,0.0,92,0.00,,,0.00,WUHU216PEETBRO,2013-06-21 09:41:00,
2013-06-21 05:46:00,59.0,56.9,30.23,SE,141,0.0,0.0,93,0.00,,,0.00,WUHU216PEETBRO,2013-06-21 09:46:00,
2013-06-21 05:51:00,58.9,56.8,30.23,SE,141,0.0,0.0,93,0.00,,,0.00,WUHU216PEETBRO,2013-06-21 09:51:00,
2013-06-21 05:56:00,59.0,56.8,30.23,SE,141,0.0,0.0,93,0.00,,,0.00,WUHU216PEETBRO,2013-06-21 09:56:00,
2013-06-21 06:01:00,59.1,56.9,30.23,SE,141,0.0,0.0,93,0.00,,,0.00,WUHU216PEETBRO,2013-06-21 10:01:00,
2013-06-21 06:06:00,59.3,57.1,30.23,SE,141,0.0,0.0,92,0.00,,,0.00,WUHU216PEETBRO,2013-06-21 10:06:00,
2013-06-21 06:11:00,59.5,57.1,30.24,SE,141,0.0,0.0,92,0.00,,,0.00,WUHU216PEETBRO,2013-06-21 10:11:00,
2013-06-21 06:16:00,59.7,57.2,30.24,SE,141,0.0,0.0,92,0.00,,,0.00,WUHU216PEETBRO,2013-06-21 10:16:00,
2013-06-21 06:21:00,59.9,57.4,30.24,SE,141,0.0,0.0,92,0.00,,,0.00,WUHU216PEETBRO,2013-06-21 10:21:00,
2013-06-21 06:26:00,60.0,57.6,30.24,SE,141,0.0,0.0,92,0.00,,,0.00,WUHU216PEETBRO,2013-06-21 10:26:00,
2013-06-21 06:31:00,60.1,57.7,30.24,SE,141,0.0,0.0,92,0.00,,,0.00,WUHU216PEETBRO,2013-06-21 10:31:00,
2013-06-21 06:36:00,60.3,57.9,30.24,SE,141,0.0,0.0,92,0.00,,,0.00,WUHU216PEETBRO,2013-06-21 10:36:00,
2013-06-21 06:41:00,60.4,57.9,30.24,SE,141,0.0,0.0,92,0.00,,,0.00,WUHU216PEETBRO,2013-06-21 10:41:00,
2013-06-21 06:46:00,60.6,58.0,30.24,SE,141,0.0,0.0,91,0.00,,,0.00,WUHU216PEETBRO,2013-06-21 10:46:00,
2013-06-21 06:51:00,60.9,58.3,30.24,SE,141,0.0,0.0,91,0.00,,,0.00,WUHU216PEETBRO,2013-06-21 10:51:00,
2013-06-21 06:56:00,61.1,58.5,30.24,SE,141,0.0,0.0,91,0.00,,,0.00,WUHU216PEETBRO,2013-06-21 10:56:00,
2013-06-21 07:01:00,61.2,58.6,30.24,SE,141,0.0,0.0,91,0.00,,,0.00,WUHU216PEETBRO,2013-06-21 11:01:00,
2013-06-21 07:06:00,61.3,58.9,30.24,SE,141,0.0,0.0,92,0.00,,,0.00,WUHU216PEETBRO,2013-06-21 11:06:00,
2013-06-21 07:11:00,61.5,59.2,30.24,SE,141,0.0,0.0,92,0.00,,,0.00,WUHU216PEETBRO,2013-06-21 11:11:00,
2013-06-21 07:16:00,61.6,59.4,30.23,SE,141,0.0,0.0,93,0.00,,,0.00,WUHU216PEETBRO,2013-06-21 11:16:00,
2013-06-21 07:21:00,61.9,59.7,30.23,SE,141,0.0,0.0,93,0.00,,,0.00,WUHU216PEETBRO,2013-06-21 11:21:00,
2013-06-21 07:26:00,62.3,60.1,30.23,SE,141,0.0,0.0,93,0.00,,,0.00,WUHU216PEETBRO,2013-06-21 11:26:00,
2013-06-21 07:31:00,62.8,60.5,30.23,SE,141,0.0,0.0,92,0.00,,,0.00,WUHU216PEETBRO,2013-06-21 11:31:00,
2013-06-21 07:36:00,63.2,60.6,30.23,SE,141,0.0,0.0,91,0.00,,,0.00,WUHU216PEETBRO,2013-06-21 11:36:00,
2013-06-21 07:41:00,63.8,60.9,30.23,SE,141,0.0,3.1,91,0.00,,,0.00,WUHU216PEETBRO,2013-06-21 11:41:00,
2013-06-21 07:46:00,64.2,60.8,30.23,SSE,147,3.4,5.4,89,0.00,,,0.00,WUHU216PEETBRO,2013-06-21 11:46:00,
2013-06-21 07:51:00,64.7,60.8,30.23,SSE,167,3.2,5.4,87,0.00,,,0.00,WUHU216PEETBRO,2013-06-21 11:51:00,
2013-06-21 07:56:00,65.1,60.8,30.23,ESE,121,2.7,6.0,86,0.00,,,0.00,WUHU216PEETBRO,2013-06-21 11:56:00,
2013-06-21 08:01:00,65.4,60.7,30.24,SW,218,3.5,6.0,85,0.00,,,0.00,WUHU216PEETBRO,2013-06-21 12:01:00,
2013-06-21 08:06:00,65.7,60.5,30.24,SSE,156,3.4,6.0,83,0.00,,,0.00,WUHU216PEETBRO,2013-06-21 12:06:00,
2013-06-21 08:11:00,66.0,60.5,30.24,SE,138,4.0,6.0,82,0.00,,,0.00,WUHU216PEETBRO,2013-06-21 12:11:00,
2013-06-21 08:16:00,66.3,60.3,30.25,South,188,4.2,5.9,81,0.00,,,0.00,WUHU216PEETBRO,2013-06-21 12:16:00,
2013-06-21 08:21:00,66.6,60.1,30.25,South,180,4.2,5.7,79,0.00,,,0.00,WUHU216PEETBRO,2013-06-21 12:21:00,
2013-06-21 08:26:00,66.8,60.5,30.26,SSW,193,3.1,5.5,80,0.00,,,0.00,WUHU216PEETBRO,2013-06-21 12:26:00,
2013-06-21 08:31:00,67.1,60.8,30.26,SSW,211,0.0,3.5,80,0.00,,,0.00,WUHU216PEETBRO,2013-06-21 12:31:00,
2013-06-21 08:36:00,67.3,60.3,30.27,SSW,206,0.0,5.9,78,0.00,,,0.00,WUHU216PEETBRO,2013-06-21 12:36:00,
2013-06-21 08:41:00,67.7,60.8,30.27,WSW,248,0.0,5.9,78,0.00,,,0.00,WUHU216PEETBRO,2013-06-21 12:41:00,
2013-06-21 08:46:00,68.0,61.3,30.27,SSE,167,2.8,3.4,79,0.00,,,0.00,WUHU216PEETBRO,2013-06-21 12:46:00,
2013-06-21 08:51:00,68.3,61.5,30.26,South,182,0.0,3.4,79,0.00,,,0.00,WUHU216PEETBRO,2013-06-21 12:51:00,
2013-06-21 08:56:00,68.6,61.7,30.27,South,182,0.0,0.0,78,0.00,,,0.00,WUHU216PEETBRO,2013-06-21 12:56:00,
2013-06-21 09:01:00,69.0,61.0,30.27,South,182,0.0,0.0,75,0.00,,,0.00,WUHU216PEETBRO,2013-06-21 13:01:00,
2013-06-21 09:07:00,69.4,61.3,30.27,South,182,0.0,0.0,75,0.00,,,0.00,WUHU216PEETBRO,2013-06-21 13:07:00,
2013-06-21 09:12:00,69.9,62.4,30.27,South,182,0.0,0.0,77,0.00,,,0.00,WUHU216PEETBRO,2013-06-21 13:12:00,
2013-06-21 09:17:00,70.2,61.6,30.26,SE,132,1.7,4.6,74,0.00,,,0.00,WUHU216PEETBRO,2013-06-21 13:17:00,
2013-06-21 09:22:00,70.4,62.6,30.25,SSW,208,3.1,4.6,76,0.00,,,0.00,WUHU216PEETBRO,2013-06-21 13:22:00,
2013-06-21 09:27:00,70.6,62.4,30.25,South,186,3.6,4.5,75,0.00,,,0.00,WUHU216PEETBRO,2013-06-21 13:27:00,
2013-06-21 09:32:00,70.8,62.7,30.24,SSE,163,3.0,4.5,75,0.00,,,0.00,WUHU216PEETBRO,2013-06-21 13:32:00,
2013-06-21 09:37:00,71.1,62.8,30.24,SSW,199,3.2,4.2,75,0.00,,,0.00,WUHU216PEETBRO,2013-06-21 13:37:00,
2013-06-21 09:42:00,71.3,62.9,30.23,East,98,5.3,5.3,74,0.00,,,0.00,WUHU216PEETBRO,2013-06-21 13:42:00,
2013-06-21 09:47:00,71.3,61.8,30.23,South,183,5.2,6.2,72,0.00,,,0.00,WUHU216PEETBRO,2013-06-21 13:47:00,
2013-06-21 09:52:00,71.3,63.1,30.22,SW,228,5.1,6.2,75,0.00,,,0.00,WUHU216PEETBRO,2013-06-21 13:52:00,
2013-06-21 09:57:00,71.3,63.1,30.22,ENE,78,4.3,6.0,75,0.00,,,0.00,WUHU216PEETBRO,2013-06-21 13:57:00,
2013-06-21 10:02:00,71.8,63.6,30.22,SSE,155,3.3,5.7,75,0.00,,,0.00,WUHU216PEETBRO,2013-06-21 14:02:00,
2013-06-21 10:07:00,72.2,63.3,30.22,ESE,107,2.7,5.5,73,0.00,,,0.00,WUHU216PEETBRO,2013-06-21 14:07:00,
2013-06-21 10:12:00,72.5,63.6,30.22,SSE,159,4.2,6.8,73,0.00,,,0.00,WUHU216PEETBRO,2013-06-21 14:12:00,
2013-06-21 10:17:00,72.9,63.7,30.22,SSW,207,4.5,7.0,73,0.00,,,0.00,WUHU216PEETBRO,2013-06-21 14:17:00,
2013-06-21 10:22:00,73.3,64.1,30.22,ESE,117,2.0,7.0,72,0.00,,,0.00,WUHU216PEETBRO,2013-06-21 14:22:00,
2013-06-21 10:27:00,73.6,63.4,30.22,SE,145,2.4,6.3,70,0.00,,,0.00,WUHU216PEETBRO,2013-06-21 14:27:00,
2013-06-21 10:32:00,73.9,63.7,30.22,South,176,4.8,6.3,70,0.00,,,0.00,WUHU216PEETBRO,2013-06-21 14:32:00,
2013-06-21 10:37:00,74.1,64.0,30.23,ESE,115,1.8,6.9,70,0.00,,,0.00,WUHU216PEETBRO,2013-06-21 14:37:00,
2013-06-21 10:42:00,74.4,62.9,30.23,East,99,3.5,6.9,67,0.00,,,0.00,WUHU216PEETBRO,2013-06-21 14:42:00,
2013-06-21 10:47:00,74.4,63.4,30.24,South,190,1.7,5.2,68,0.00,,,0.00,WUHU216PEETBRO,2013-06-21 14:47:00,
2013-06-21 10:52:00,74.2,64.2,30.24,South,190,0.0,4.3,71,0.00,,,0.00,WUHU216PEETBRO,2013-06-21 14:52:00,
2013-06-21 10:57:00,74.6,63.8,30.24,SSW,211,3.5,5.0,69,0.00,,,0.00,WUHU216PEETBRO,2013-06-21 14:57:00,
2013-06-21 11:02:00,75.0,63.8,30.24,WSW,238,3.9,5.0,68,0.00,,,0.00,WUHU216PEETBRO,2013-06-21 15:02:00,
2013-06-21 11:07:00,74.8,64.2,30.25,SW,216,4.3,5.2,69,0.00,,,0.00,WUHU216PEETBRO,2013-06-21 15:07:00,
2013-06-21 11:12:00,74.8,65.3,30.24,WSW,241,3.5,5.5,72,0.00,,,0.00,WUHU216PEETBRO,2013-06-21 15:12:00,
2013-06-21 11:17:00,75.3,63.0,30.24,South,173,3.7,6.2,65,0.00,,,0.00,WUHU216PEETBRO,2013-06-21 15:17:00,
2013-06-21 11:22:00,75.3,64.3,30.24,ESE,104,0.0,6.2,68,0.00,,,0.00,WUHU216PEETBRO,2013-06-21 15:22:00,
2013-06-21 11:27:00,75.4,63.6,30.24,South,185,3.8,4.2,66,0.00,,,0.00,WUHU216PEETBRO,2013-06-21 15:27:00,
2013-06-21 11:32:00,75.0,63.8,30.24,WSW,241,3.0,5.7,68,0.00,,,0.00,WUHU216PEETBRO,2013-06-21 15:32:00,
2013-06-21 11:37:00,75.0,65.5,30.24,South,175,0.0,5.7,72,0.00,,,0.00,WUHU216PEETBRO,2013-06-21 15:37:00,
2013-06-21 11:42:00,75.1,65.1,30.24,SSW,207,3.5,4.7,71,0.00,,,0.00,WUHU216PEETBRO,2013-06-21 15:42:00,
2013-06-21 11:47:00,75.4,64.6,30.24,SSE,153,3.3,5.0,69,0.00,,,0.00,WUHU216PEETBRO,2013-06-21 15:47:00,
2013-06-21 11:52:00,75.3,64.9,30.24,South,190,3.4,5.0,70,0.00,,,0.00,WUHU216PEETBRO,2013-06-21 15:52:00,
2013-06-21 11:57:00,75.2,65.4,30.24,SSE,167,0.0,4.3,71,0.00,,,0.00,WUHU216PEETBRO,2013-06-21 15:57:00,
2013-06-21 12:02:00,75.8,66.2,30.24,SSE,167,0.0,0.0,72,0.00,,,0.00,WUHU216PEETBRO,2013-06-21 16:02:00,
2013-06-21 12:07:00,76.4,64.0,30.24,SW,235,6.1,6.1,65,0.00,,,0.00,WUHU216PEETBRO,2013-06-21 16:07:00,
2013-06-21 12:12:00,76.3,65.5,30.24,SW,222,4.0,8.7,69,0.00,,,0.00,WUHU216PEETBRO,2013-06-21 16:12:00,
2013-06-21 12:17:00,76.5,65.2,30.24,SSW,197,5.4,8.7,68,0.00,,,0.00,WUHU216PEETBRO,2013-06-21 16:17:00,
2013-06-21 12:22:00,77.0,65.1,30.24,South,177,3.8,6.7,66,0.00,,,0.00,WUHU216PEETBRO,2013-06-21 16:22:00,
2013-06-21 12:27:00,77.2,64.9,30.24,SE,143,3.0,6.7,65,0.00,,,0.00,WUHU216PEETBRO,2013-06-21 16:27:00,
2013-06-21 12:32:00,77.0,63.8,30.25,SE,131,0.0,5.6,63,0.00,,,0.00,WUHU216PEETBRO,2013-06-21 16:32:00,
2013-06-21 12:37:00,76.5,64.4,30.24,SE,127,0.0,4.9,66,0.00,,,0.00,WUHU216PEETBRO,2013-06-21 16:37:00,
2013-06-21 12:42:00,76.3,65.3,30.24,SSE,158,0.0,4.9,68,0.00,,,0.00,WUHU216PEETBRO,2013-06-21 16:42:00,
2013-06-21 12:47:00,76.1,65.1,30.24,SSE,158,0.0,3.2,68,0.00,,,0.00,WUHU216PEETBRO,2013-06-21 16:47:00,
2013-06-21 12:52:00,75.9,64.9,30.24,SSE,158,0.0,0.0,68,0.00,,,0.00,WUHU216PEETBRO,2013-06-21 16:52:00,
2013-06-21 12:57:00,75.9,65.3,30.24,SSE,158,0.0,0.0,69,0.00,,,0.00,WUHU216PEETBRO,2013-06-21 16:57:00,
2013-06-21 13:02:00,76.0,66.3,30.23,SSE,158,0.0,0.0,71,0.00,,,0.00,WUHU216PEETBRO,2013-06-21 17:02:00,
2013-06-21 13:08:00,76.1,66.0,30.23,SSE,158,1.8,1.8,71,0.00,,,0.00,WUHU216PEETBRO,2013-06-21 17:08:00,
2013-06-21 13:13:00,76.6,66.9,30.23,SSE,158,2.7,2.7,71,0.00,,,0.00,WUHU216PEETBRO,2013-06-21 17:13:00,
2013-06-21 13:18:00,77.0,67.2,30.22,SSE,153,0.0,3.2,71,0.00,,,0.00,WUHU216PEETBRO,2013-06-21 17:18:00,
2013-06-21 13:23:00,77.8,67.7,30.23,South,190,4.2,6.6,71,0.00,,,0.00,WUHU216PEETBRO,2013-06-21 17:23:00,
2013-06-21 13:28:00,78.7,66.8,30.22,SSE,159,3.2,6.6,66,0.00,,,0.00,WUHU216PEETBRO,2013-06-21 17:28:00,
2013-06-21 13:33:00,79.3,65.3,30.22,East,95,3.5,4.8,62,0.00,,,0.00,WUHU216PEETBRO,2013-06-21 17:33:00,
2013-06-21 13:38:00,79.7,64.0,30.22,SSW,204,4.2,7.0,58,0.00,,,0.00,WUHU216PEETBRO,2013-06-21 17:38:00,
2013-06-21 13:43:00,79.5,63.2,30.22,West,263,4.0,7.0,57,0.00,,,0.00,WUHU216PEETBRO,2013-06-21 17:43:00,
2013-06-21 13:46:00,79.2,60.3,30.22,WSW,255,5.2,7.4,52,0.00,,,0.00,WUHU216PEETBRO,2013-06-21 17:46:00,
2013-06-21 13:51:00,79.2,66.6,30.22,SW,232,4.2,7.4,65,0.00,,,0.00,WUHU216PEETBRO,2013-06-21 17:51:00,
2013-06-21 13:57:00,79.1,65.2,30.22,SSE,161,3.0,6.0,62,0.00,,,0.00,WUHU216PEETBRO,2013-06-21 17:57:00,
2013-06-21 14:02:00,79.2,66.0,30.22,ESE,107,0.0,4.8,64,0.00,,,0.00,WUHU216PEETBRO,2013-06-21 18:02:00,
2013-06-21 14:07:00,79.5,64.6,30.21,SSW,213,4.9,5.6,60,0.00,,,0.00,WUHU216PEETBRO,2013-06-21 18:07:00,
2013-06-21 14:12:00,80.1,64.4,30.22,SW,222,5.1,7.8,58,0.00,,,0.00,WUHU216PEETBRO,2013-06-21 18:12:00,
2013-06-21 14:17:00,80.4,65.8,30.22,WSW,244,0.0,7.8,61,0.00,,,0.00,WUHU216PEETBRO,2013-06-21 18:17:00,
2013-06-21 14:22:00,80.3,66.1,30.22,SW,220,3.6,5.4,62,0.00,,,0.00,WUHU216PEETBRO,2013-06-21 18:22:00,
2013-06-21 14:23:00,80.2,66.3,30.22,SW,228,3.6,5.4,62,0.00,,,0.00,WUHU216PEETBRO,2013-06-21 18:23:00,
2013-06-21 14:24:00,80.2,66.7,30.22,SW,218,3.4,5.4,63,0.00,,,0.00,WUHU216PEETBRO,2013-06-21 18:24:00,
2013-06-21 14:29:00,80.0,67.4,30.22,SW,215,5.8,5.8,65,0.00,,,0.00,WUHU216PEETBRO,2013-06-21 18:29:00,
2013-06-21 14:34:00,80.1,67.7,30.22,South,170,0.0,7.8,65,0.00,,,0.00,WUHU216PEETBRO,2013-06-21 18:34:00,
2013-06-21 14:39:00,80.2,67.2,30.22,South,170,0.0,7.8,64,0.00,,,0.00,WUHU216PEETBRO,2013-06-21 18:39:00,
2013-06-21 14:44:00,80.2,67.1,30.22,SE,136,2.9,5.5,64,0.00,,,0.00,WUHU216PEETBRO,2013-06-21 18:44:00,
2013-06-21 14:45:00,80.2,67.1,30.22,South,183,2.7,5.5,64,0.00,,,0.00,WUHU216PEETBRO,2013-06-21 18:45:00,
2013-06-21 14:46:00,80.3,67.8,30.22,SSW,197,3.4,6.6,65,0.00,,,0.00,WUHU216PEETBRO,2013-06-21 18:46:00,
2013-06-21 14:51:00,80.5,67.1,30.22,SSE,153,0.0,6.6,63,0.00,,,0.00,WUHU216PEETBRO,2013-06-21 18:51:00,
2013-06-21 14:56:00,80.4,67.3,30.22,SE,124,3.1,5.0,64,0.00,,,0.00,WUHU216PEETBRO,2013-06-21 18:56:00,
2013-06-21 15:01:00,80.3,66.8,30.22,SE,132,3.1,4.9,63,0.00,,,0.00,WUHU216PEETBRO,2013-06-21 19:01:00,
2013-06-21 15:06:00,80.0,67.6,30.21,South,175,3.7,5.5,65,0.00,,,0.00,WUHU216PEETBRO,2013-06-21 19:06:00,
2013-06-21 15:11:00,79.8,68.4,30.21,ESE,103,3.0,5.5,68,0.00,,,0.00,WUHU216PEETBRO,2013-06-21 19:11:00,
2013-06-21 15:16:00,79.8,67.7,30.21,ENE,73,0.0,5.3,66,0.00,,,0.00,WUHU216PEETBRO,2013-06-21 19:16:00,
2013-06-21 15:20:00,80.0,68.1,30.21,ENE,73,0.0,2.9,67,0.00,,,0.00,WUHU216PEETBRO,2013-06-21 19:20:00,
2013-06-21 15:25:00,80.3,67.7,30.21,SSW,197,3.3,5.3,65,0.00,,,0.00,WUHU216PEETBRO,2013-06-21 19:25:00,
2013-06-21 15:30:00,80.2,65.8,30.21,South,183,4.3,7.9,61,0.00,,,0.00,WUHU216PEETBRO,2013-06-21 19:30:00,
2013-06-21 15:35:00,80.1,66.9,30.21,East,93,2.9,7.9,64,0.00,,,0.00,WUHU216PEETBRO,2013-06-21 19:35:00,
2013-06-21 15:40:00,79.8,66.0,30.21,East,93,0.0,7.1,62,0.00,,,0.00,WUHU216PEETBRO,2013-06-21 19:40:00,
2013-06-21 15:42:00,79.4,66.5,30.20,East,93,0.0,5.8,64,0.00,,,0.00,WUHU216PEETBRO,2013-06-21 19:42:00,
2013-06-21 15:48:00,79.0,67.0,30.21,East,93,0.0,0.0,66,0.00,,,0.00,WUHU216PEETBRO,2013-06-21 19:48:00,
2013-06-21 15:53:00,78.7,67.4,30.20,East,93,0.0,0.0,68,0.00,,,0.00,WUHU216PEETBRO,2013-06-21 19:53:00,
2013-06-21 15:58:00,78.4,66.6,30.21,East,93,0.0,0.0,67,0.00,,,0.00,WUHU216PEETBRO,2013-06-21 19:58:00,
2013-06-21 16:03:00,78.3,67.3,30.20,East,93,0.0,0.0,69,0.00,,,0.00,WUHU216PEETBRO,2013-06-21 20:03:00,
2013-06-21 16:04:00,78.3,67.1,30.20,East,93,0.0,0.0,68,0.00,,,0.00,WUHU216PEETBRO,2013-06-21 20:04:00,
2013-06-21 16:09:00,78.4,67.4,30.20,East,93,0.0,0.0,69,0.00,,,0.00,WUHU216PEETBRO,2013-06-21 20:09:00,
2013-06-21 16:11:00,78.4,67.5,30.20,ENE,66,2.5,2.5,69,0.00,,,0.00,WUHU216PEETBRO,2013-06-21 20:11:00,
2013-06-21 16:14:00,78.5,67.2,30.20,ESE,114,0.0,2.6,68,0.00,,,0.00,WUHU216PEETBRO,2013-06-21 20:14:00,
2013-06-21 16:19:00,78.5,66.9,30.20,East,93,0.0,4.3,67,0.00,,,0.00,WUHU216PEETBRO,2013-06-21 20:19:00,
2013-06-21 16:24:00,78.3,66.7,30.19,East,97,0.0,4.3,67,0.00,,,0.00,WUHU216PEETBRO,2013-06-21 20:24:00,
2013-06-21 16:29:00,78.3,66.5,30.19,East,88,2.3,4.4,67,0.00,,,0.00,WUHU216PEETBRO,2013-06-21 20:29:00,
2013-06-21 16:34:00,78.3,66.2,30.19,SE,131,2.3,7.0,66,0.00,,,0.00,WUHU216PEETBRO,2013-06-21 20:34:00,
2013-06-21 16:39:00,78.3,66.5,30.19,South,177,0.0,7.0,67,0.00,,,0.00,WUHU216PEETBRO,2013-06-21 20:39:00,
2013-06-21 16:44:00,78.3,66.7,30.19,South,177,0.0,3.4,67,0.00,,,0.00,WUHU216PEETBRO,2013-06-21 20:44:00,
2013-06-21 16:49:00,78.3,66.8,30.18,South,177,0.0,0.0,67,0.00,,,0.00,WUHU216PEETBRO,2013-06-21 20:49:00,
2013-06-21 16:54:00,78.3,66.8,30.18,SE,128,3.1,3.4,67,0.00,,,0.00,WUHU216PEETBRO,2013-06-21 20:54:00,
2013-06-21 16:59:00,78.3,67.4,30.17,ESE,104,3.4,3.4,69,0.00,,,0.00,WUHU216PEETBRO,2013-06-21 20:59:00,
2013-06-21 17:04:00,78.2,67.4,30.17,SSE,151,3.6,4.6,69,0.00,,,0.00,WUHU216PEETBRO,2013-06-21 21:04:00,
2013-06-21 17:09:00,78.2,67.0,30.16,South,169,0.0,4.6,68,0.00,,,0.00,WUHU216PEETBRO,2013-06-21 21:09:00,
2013-06-21 17:14:00,78.4,67.7,30.16,ENE,62,0.0,3.4,69,0.00,,,0.00,WUHU216PEETBRO,2013-06-21 21:14:00,
2013-06-21 17:19:00,78.5,67.7,30.16,ENE,62,0.0,3.4,69,0.00,,,0.00,WUHU216PEETBRO,2013-06-21 21:19:00,
2013-06-21 17:24:00,78.9,67.8,30.16,South,172,3.4,5.3,68,0.00,,,0.00,WUHU216PEETBRO,2013-06-21 21:24:00,
2013-06-21 17:29:00,79.0,68.1,30.16,SE,141,2.9,5.5,69,0.00,,,0.00,WUHU216PEETBRO,2013-06-21 21:29:00,
2013-06-21 17:34:00,79.2,68.1,30.16,SE,141,0.0,5.5,68,0.00,,,0.00,WUHU216PEETBRO,2013-06-21 21:34:00,
2013-06-21 17:39:00,79.2,68.2,30.16,SE,141,0.0,3.4,69,0.00,,,0.00,WUHU216PEETBRO,2013-06-21 21:39:00,
2013-06-21 17:44:00,79.3,68.2,30.15,SSW,197,0.0,3.5,68,0.00,,,0.00,WUHU216PEETBRO,2013-06-21 21:44:00,
2013-06-21 17:49:00,79.5,67.7,30.15,SSW,197,2.4,3.5,67,0.00,,,0.00,WUHU216PEETBRO,2013-06-21 21:49:00,
2013-06-21 17:54:00,79.9,66.3,30.14,SW,225,6.1,6.1,63,0.00,,,0.00,WUHU216PEETBRO,2013-06-21 21:54:00,
2013-06-21 17:59:00,80.1,65.2,30.14,SW,223,4.5,6.2,60,0.00,,,0.00,WUHU216PEETBRO,2013-06-21 21:59:00,
2013-06-21 18:04:00,80.2,61.6,30.14,WSW,254,6.5,8.2,53,0.00,,,0.00,WUHU216PEETBRO,2013-06-21 22:04:00,
2013-06-21 18:09:00,80.4,64.0,30.14,SSW,205,5.0,8.2,57,0.00,,,0.00,WUHU216PEETBRO,2013-06-21 22:09:00,
2013-06-21 18:14:00,80.2,60.3,30.14,WSW,254,11.1,12.8,51,0.00,,,0.00,WUHU216PEETBRO,2013-06-21 22:14:00,
2013-06-21 18:19:00,80.2,61.3,30.14,WSW,240,4.4,12.8,52,0.00,,,0.00,WUHU216PEETBRO,2013-06-21 22:19:00,
2013-06-21 18:24:00,80.2,60.0,30.13,WSW,245,5.9,12.6,50,0.00,,,0.00,WUHU216PEETBRO,2013-06-21 22:24:00,
2013-06-21 18:29:00,80.3,60.9,30.13,SW,219,4.0,12.6,52,0.00,,,0.00,WUHU216PEETBRO,2013-06-21 22:29:00,
2013-06-21 18:34:00,80.1,61.9,30.13,SSW,195,3.3,10.1,54,0.00,,,0.00,WUHU216PEETBRO,2013-06-21 22:34:00,
2013-06-21 18:39:00,80.0,62.5,30.13,South,174,2.1,6.9,55,0.00,,,0.00,WUHU216PEETBRO,2013-06-21 22:39:00,
2013-06-21 18:44:00,79.9,62.2,30.13,WSW,244,5.2,7.0,55,0.00,,,0.00,WUHU216PEETBRO,2013-06-21 22:44:00,
2013-06-21 18:49:00,80.0,62.5,30.13,West,266,3.3,7.0,55,0.00,,,0.00,WUHU216PEETBRO,2013-06-21 22:49:00,
2013-06-21 18:54:00,80.1,63.0,30.13,SSE,151,8.8,8.8,56,0.00,,,0.00,WUHU216PEETBRO,2013-06-21 22:54:00,
2013-06-21 18:59:00,80.2,61.8,30.13,SW,236,4.3,9.2,53,0.00,,,0.00,WUHU216PEETBRO,2013-06-21 22:59:00,
2013-06-21 19:04:00,80.3,62.6,30.13,South,176,3.8,7.9,55,0.00,,,0.00,WUHU216PEETBRO,2013-06-21 23:04:00,
2013-06-21 19:09:00,80.3,62.2,30.13,SSW,199,5.0,7.9,54,0.00,,,0.00,WUHU216PEETBRO,2013-06-21 23:09:00,
2013-06-21 19:14:00,80.3,61.8,30.13,WSW,255,3.5,6.8,53,0.00,,,0.00,WUHU216PEETBRO,2013-06-21 23:14:00,
2013-06-21 19:19:00,80.0,62.3,30.13,SW,220,5.0,7.6,54,0.00,,,0.00,WUHU216PEETBRO,2013-06-21 23:19:00,
2013-06-21 19:24:00,79.7,61.7,30.13,South,174,3.2,7.6,54,0.00,,,0.00,WUHU216PEETBRO,2013-06-21 23:24:00,
2013-06-21 19:29:00,79.4,61.0,30.13,SW,214,3.5,5.2,53,0.00,,,0.00,WUHU216PEETBRO,2013-06-21 23:29:00,
2013-06-21 19:34:00,79.2,60.9,30.13,SSW,200,4.2,7.5,53,0.00,,,0.00,WUHU216PEETBRO,2013-06-21 23:34:00,
2013-06-21 19:39:00,79.2,61.1,30.12,South,189,5.3,9.1,54,0.00,,,0.00,WUHU216PEETBRO,2013-06-21 23:39:00,
2013-06-21 19:44:00,79.1,60.7,30.12,South,170,4.3,9.1,53,0.00,,,0.00,WUHU216PEETBRO,2013-06-21 23:44:00,
2013-06-21 19:49:00,78.9,59.5,30.13,SSW,210,4.9,7.3,51,0.00,,,0.00,WUHU216PEETBRO,2013-06-21 23:49:00,
2013-06-21 19:54:00,78.8,60.8,30.12,SSW,200,4.3,7.3,54,0.00,,,0.00,WUHU216PEETBRO,2013-06-21 23:54:00,
2013-06-21 19:59:00,78.5,61.0,30.12,South,169,3.0,5.8,55,0.00,,,0.00,WUHU216PEETBRO,2013-06-21 23:59:00,
2013-06-21 20:04:00,78.2,61.1,30.12,South,177,4.3,5.4,56,0.00,,,0.00,WUHU216PEETBRO,2013-06-22 00:04:00,
2013-06-21 20:09:00,78.1,61.2,30.12,South,176,3.6,6.6,56,0.00,,,0.00,WUHU216PEETBRO,2013-06-22 00:09:00,
2013-06-21 20:14:00,78.1,61.4,30.11,SSW,207,4.3,6.6,56,0.00,,,0.00,WUHU216PEETBRO,2013-06-22 00:14:00,
2013-06-21 20:19:00,77.8,61.5,30.11,SSW,204,3.2,6.1,57,0.00,,,0.00,WUHU216PEETBRO,2013-06-22 00:19:00,
2013-06-21 20:24:00,77.7,61.3,30.12,South,181,3.7,6.2,57,0.00,,,0.00,WUHU216PEETBRO,2013-06-22 00:24:00,
2013-06-21 20:29:00,77.7,61.1,30.12,SW,217,4.2,6.2,56,0.00,,,0.00,WUHU216PEETBRO,2013-06-22 00:29:00,
2013-06-21 20:34:00,77.5,60.8,30.12,SW,220,5.6,9.4,56,0.00,,,0.00,WUHU216PEETBRO,2013-06-22 00:34:00,
2013-06-21 20:39:00,77.7,60.4,30.12,WSW,252,4.6,9.4,55,0.00,,,0.00,WUHU216PEETBRO,2013-06-22 00:39:00,
2013-06-21 20:44:00,77.5,60.9,30.12,South,185,3.9,7.4,56,0.00,,,0.00,WUHU216PEETBRO,2013-06-22 00:44:00,
2013-06-21 20:49:00,77.4,60.9,30.12,South,185,3.8,7.4,57,0.00,,,0.00,WUHU216PEETBRO,2013-06-22 00:49:00,
2013-06-21 20:54:00,77.3,60.6,30.11,SSE,153,5.5,7.7,56,0.00,,,0.00,WUHU216PEETBRO,2013-06-22 00:54:00,
2013-06-21 20:59:00,77.2,61.0,30.11,SSW,198,4.7,7.7,57,0.00,,,0.00,WUHU216PEETBRO,2013-06-22 00:59:00,
2013-06-21 21:04:00,77.1,61.0,30.11,SW,215,5.9,6.3,57,0.00,,,0.00,WUHU216PEETBRO,2013-06-22 01:04:00,
2013-06-21 21:09:00,77.0,60.6,30.11,South,180,3.9,7.0,57,0.00,,,0.00,WUHU216PEETBRO,2013-06-22 01:09:00,
2013-06-21 21:14:00,77.0,60.4,30.11,South,189,5.5,7.7,56,0.00,,,0.00,WUHU216PEETBRO,2013-06-22 01:14:00,
2013-06-21 21:19:00,76.9,60.6,30.11,SSW,196,4.3,7.7,57,0.00,,,0.00,WUHU216PEETBRO,2013-06-22 01:19:00,
2013-06-21 21:24:00,76.7,60.6,30.11,South,186,3.5,7.8,57,0.00,,,0.00,WUHU216PEETBRO,2013-06-22 01:24:00,
2013-06-21 21:29:00,76.3,60.4,30.11,South,169,4.6,7.8,58,0.00,,,0.00,WUHU216PEETBRO,2013-06-22 01:29:00,
2013-06-21 21:34:00,76.5,60.8,30.11,SSW,193,3.5,7.0,58,0.00,,,0.00,WUHU216PEETBRO,2013-06-22 01:34:00,
2013-06-21 21:39:00,76.4,60.5,30.12,SSE,161,5.4,7.1,58,0.00,,,0.00,WUHU216PEETBRO,2013-06-22 01:39:00,
2013-06-21 21:44:00,76.3,60.8,30.12,SSE,164,3.6,7.1,58,0.00,,,0.00,WUHU216PEETBRO,2013-06-22 01:44:00,
2013-06-21 21:49:00,75.9,60.7,30.13,SW,227,2.1,7.3,59,0.00,,,0.00,WUHU216PEETBRO,2013-06-22 01:49:00,
2013-06-21 21:54:00,75.7,60.8,30.13,SSW,200,4.4,7.3,60,0.00,,,0.00,WUHU216PEETBRO,2013-06-22 01:54:00,
2013-06-21 21:59:00,75.4,60.7,30.13,SSW,204,3.9,6.4,60,0.00,,,0.00,WUHU216PEETBRO,2013-06-22 01:59:00,
2013-06-21 22:04:00,75.2,60.6,30.13,SSW,198,5.0,7.9,60,0.00,,,0.00,WUHU216PEETBRO,2013-06-22 02:04:00,
2013-06-21 22:09:00,75.1,60.8,30.13,South,188,3.9,7.9,61,0.00,,,0.00,WUHU216PEETBRO,2013-06-22 02:09:00,
2013-06-21 22:14:00,74.8,60.7,30.14,SSE,158,3.4,5.5,61,0.00,,,0.00,WUHU216PEETBRO,2013-06-22 02:14:00,
2013-06-21 22:19:00,74.7,60.9,30.14,SSE,158,0.0,3.4,62,0.00,,,0.00,WUHU216PEETBRO,2013-06-22 02:19:00,
2013-06-21 22:24:00,74.4,60.9,30.14,SSE,159,0.0,5.0,62,0.00,,,0.00,WUHU216PEETBRO,2013-06-22 02:24:00,
2013-06-21 22:29:00,74.3,61.3,30.14,SSE,159,0.0,5.0,63,0.00,,,0.00,WUHU216PEETBRO,2013-06-22 02:29:00,
2013-06-21 22:34:00,73.8,61.0,30.14,South,186,0.0,3.2,64,0.00,,,0.00,WUHU216PEETBRO,2013-06-22 02:34:00,
2013-06-21 22:39:00,73.7,61.2,30.14,South,186,3.0,3.2,65,0.00,,,0.00,WUHU216PEETBRO,2013-06-22 02:39:00,
2013-06-21 22:44:00,73.4,61.4,30.14,South,186,0.0,3.0,66,0.00,,,0.00,WUHU216PEETBRO,2013-06-22 02:44:00,
2013-06-21 22:49:00,73.0,61.3,30.14,South,174,3.2,3.2,66,0.00,,,0.00,WUHU216PEETBRO,2013-06-22 02:49:00,
2013-06-21 22:54:00,72.9,61.5,30.14,South,179,0.0,3.2,67,0.00,,,0.00,WUHU216PEETBRO,2013-06-22 02:54:00,
2013-06-21 22:59:00,72.7,61.4,30.14,South,179,0.0,0.0,67,0.00,,,0.00,WUHU216PEETBRO,2013-06-22 02:59:00,
2013-06-21 23:04:00,72.6,61.6,30.14,South,179,0.0,0.0,68,0.00,,,0.00,WUHU216PEETBRO,2013-06-22 03:04:00,
2013-06-21 23:09:00,72.4,61.8,30.14,South,179,0.0,0.0,69,0.00,,,0.00,WUHU216PEETBRO,2013-06-22 03:09:00,
2013-06-21 23:14:00,72.1,62.1,30.14,South,179,0.0,0.0,70,0.00,,,0.00,WUHU216PEETBRO,2013-06-22 03:14:00,
2013-06-21 23:19:00,71.5,62.1,30.14,South,179,0.0,0.0,72,0.00,,,0.00,WUHU216PEETBRO,2013-06-22 03:19:00,
2013-06-21 23:24:00,71.1,62.3,30.14,South,179,0.0,0.0,73,0.00,,,0.00,WUHU216PEETBRO,2013-06-22 03:24:00,
2013-06-21 23:29:00,70.9,62.5,30.14,South,179,0.0,0.0,75,0.00,,,0.00,WUHU216PEETBRO,2013-06-22 03:29:00,
2013-06-21 23:34:00,70.7,62.6,30.14,South,179,0.0,0.0,75,0.00,,,0.00,WUHU216PEETBRO,2013-06-22 03:34:00,
2013-06-21 23:39:00,70.5,62.8,30.14,South,179,0.0,0.0,76,0.00,,,0.00,WUHU216PEETBRO,2013-06-22 03:39:00,
2013-06-21 23:44:00,70.3,63.0,30.14,South,179,0.0,0.0,77,0.00,,,0.00,WUHU216PEETBRO,2013-06-22 03:44:00,
2013-06-21 23:49:00,70.1,63.2,30.15,South,179,0.0,0.0,78,0.00,,,0.00,WUHU216PEETBRO,2013-06-22 03:49:00,
2013-06-21 23:54:00,69.9,63.2,30.14,South,179,0.0,0.0,79,0.00,,,0.00,WUHU216PEETBRO,2013-06-22 03:54:00,
2013-06-21 23:59:00,69.9,63.4,30.14,South,179,0.0,0.0,80,0.00,,,0.00,WUHU216PEETBRO,2013-06-22 03:59:00,